692  
NZUS99 KSGF 210107  
HRRSGF  
 
HOURLY WEATHER  
NATIONAL WEATHER SERVICE SPRINGFIELD MO  
700 PM CST THU FEB 20 2020  
   
.....SGF CWA...
 
 
 
CITY SKY/WX TMP DP RH WIND PRES REMARKS  
SPRINGFIELD CLEAR 27 11 51 N14 30.65R WCI 16  
JOPLIN CLEAR 28 15 58 N8 30.71R WCI 20  
WEST PLAINS CLEAR 31 14 49 N7 30.62R WCI 24  
ROLLA CLEAR 23 7 50 N7 30.67R WCI 15  
OSAGE BEACH CLEAR 26 10 50 N5 30.71R WCI 20  
BRANSON PTCLDY 30 19 64 N10 30.63R WCI 21  
   
.....SURROUNDING SGF CWA...
 
 
 
CITY SKY/WX TMP DP RH WIND PRES REMARKS  
CHANUTE CLEAR 28 16 60 N5 30.72R WCI 23  
PARSONS CLEAR 29 17 61 N7 30.73R WCI 22  
COFFEYVILLE CLEAR 29 15 56 N8 30.72R WCI 21  
EMPORIA CLEAR 25 11 55 N6 30.71R WCI 18  
GROVE OK CLEAR 32 18 55 N7 30.70R WCI 26  
ROGERS AR CLEAR 31 19 61 N8 30.65R WCI 23  
SILOAM SPRINGS CLEAR 30 23 75 N6 30.66R WCI 24  
HARRISON AR PTCLDY 31 19 61 NW7 30.61R WCI 24  
NEAR YELLVILLE CLEAR 36 21 54 N10G17 30.64R WCI 28  
   
.....KANSAS AND MISSOURI...
 
 
 
CITY SKY/WX TMP DP RH WIND PRES REMARKS  
KANSAS CTY INT CLEAR 24 7 48 N5 30.72R WCI 18  
DOWNTOWN KC CLEAR 28 4 35 N7 30.74R WCI 21  
COLUMBIA CLEAR 22 10 60 N6 30.71R WCI 14  
SEDALIA CLEAR 25 14 63 NW5 30.73R WCI 19  
ST JOSEPH CLEAR 23 11 60 NW3 30.74S  
ST LOUIS CLEAR 26 9 48 N9 30.71R WCI 17  
SPIRIT OF STL CLEAR 27 6 41 N8 30.71R WCI 19  
KIRKSVILLE CLEAR 22 5 48 N5 30.72R WCI 16  
WICHITA CLEAR 27 16 63 N8 30.72R WCI 19  
TOPEKA CLEAR 26 7 44 NE5 30.74R WCI 20  
OLATHE CLEAR 25 5 42 NE5 30.72R WCI 19  
   
.....TENNESSEE...
 
 
 
CITY SKY/WX TMP DP RH WIND PRES REMARKS  
MEMPHIS FAIR 39 26 59 N21G30 30.54R WCI 29  
NASHVILLE MOCLDY 38 24 57 N8 30.48R WCI 32  
   
.....ARKANSAS....
 
 
 
CITY SKY/WX TMP DP RH WIND PRES REMARKS  
FAYETTEVILLE CLEAR 33 22 63 N7 30.64R WCI 27  
FT SMITH CLEAR 40 26 57 N17G25 30.64R WCI 31  
LITTLE ROCK PTCLDY 38 25 59 N8 30.57R WCI 32  
   
.....OKLAHOMA....
 
 
 
CITY SKY/WX TMP DP RH WIND PRES REMARKS  
TULSA CLEAR 33 20 58 N10 30.70R WCI 25  
PONCA CITY CLEAR 27 14 58 N8 30.73R WCI 19  
MCALESTER PTCLDY 37 25 61 N13 30.66R WCI 29  
OKLAHOMA CITY CLEAR 34 23 64 N10 30.67R WCI 26  
   
.....IOWA.........
 
 
 
CITY SKY/WX TMP DP RH WIND PRES REMARKS  
DES MOINES CLEAR 20 1 43 CALM 30.70S  
QUAD CITIES FAIR 19 3 49 NW6 30.72R WCI 11  
   
.....ILLINOIS.....
 
 
 
CITY SKY/WX TMP DP RH WIND PRES REMARKS  
QUINCY CLEAR 20 7 57 N6 30.72R WCI 12  
CHICAGO FAIR 18 -2 41 NW9 30.66S WCI 7  
 
 
 
CLICK HERE TO GO TO PREVIOUS BULLETINS.

The Nexlab MO Page
The Nexlab KS Page Main Text Page